User: anonymous   Login
Location: Unspecified
(0.0000°N, 0.0000°E)
Time: 00:03:12
(UTC+00:00)
Language:

USA 169 - Orbit

View from above orbital plane
View from above orbital plane
View from above satellite
View from above satellite

Ground track
Ground track

The orbit data is extracted from the following two-line orbital elements,

1 27711U 03012A   20059.55818396 -.00000006  00000-0  00000+0 0  9991
2 27711   8.9001  45.6175 0001967 300.3771 252.7684  1.00273214  8574
Epoch (UTC): 28 February 2020 13:23:47
Eccentricity: 0.0001967
inclination: 8.9001°
perigee height: 35777 km
apogee height: 35794 km
right ascension of ascending node: 45.6175°
argument of perigee: 300.3771°
revolutions per day: 1.00273214
mean anomaly at epoch: 252.7684°
orbit number at epoch: 857

The dashed part of the orbit path shows where the satellite is in the earth's shadow,  

DLR